RH
71 67 65 62 58 54 56 60 58 52 50 54 77 89 94 86 62 85 90 72 67 63 54 52 30 22 17 16 15 15 13 12 15 17 16 15 15 16 17 16 15 11 9
75 75 66 62 57 64 62 59 46 34 39 58 60 64 70 65 78 82 72 63 65 56 52 40 26 21 19 19 16 15 15 15 17 17 17 16 17 17 17 17 16 13 10
68 72 63 61 61 64 60 40 31 30 35 43 59 63 68 86 87 70 52 60 59 58 44 31 25 22 22 19 16 16 16 18 19 18 18 19 18 19 20 18 18 16 12
84 78 70 68 67 60 50 38 22 24 47 74 84 93 86 62 43 43 52 57 62 50 31 30 24 26 21 18 17 17 18 21 23 22 20 22 21 20 21 22 21 20 16
83 84 84 76 66 56 57 37 24 24 31 54 59 38 32 32 33 38 46 56 50 37 30 30 31 27 21 19 19 19 21 24 24 23 22 24 24 24 24 25 25 24 22
99 93 79 73 66 56 58 45 26 26 26 26 26 27 26 25 30 39 49 46 38 33 31 35 34 25 22 21 21 22 22 23 24 23 23 23 25 26 26 25 26 28 27
100 86 77 68 60 48 40 53 47 32 26 25 24 24 24 25 28 36 40 38 35 38 33 41 33 25 24 23 22 23 23 24 24 26 29 28 30 29 30 26 25 25 29
100 97 84 72 60 55 57 48 45 40 36 31 29 27 27 25 31 36 38 35 37 43 39 42 31 26 27 26 26 25 24 24 24 25 27 31 33 33 33 31 29 27 28
99 87 79 59 43 36 35 35 34 42 44 40 36 32 33 32 34 38 38 36 39 45 45 38 31 29 31 30 29 28 27 26 24 24 25 28 28 29 32 32 35 34 32
100 98 77 61 48 47 50 43 44 46 50 46 37 38 40 42 40 41 43 45 45 46 45 37 31 33 33 34 32 30 30 25 25 26 23 27 29 33 37 37 37 39 37
99 100 98 96 82 76 63 65 58 63 52 47 44 46 46 48 52 56 60 61 56 50 46 40 34 34 37 37 36 33 30 30 26 27 29 32 34 36 35 34 33 38 41
83 98 100 98 92 95 87 71 68 74 75 70 62 68 61 58 58 58 55 56 53 46 43 43 43 40 38 40 39 37 36 39 37 35 37 41 38 38 40 42 39 38 43
78 100 100 100 100 100 88 79 70 70 78 88 87 80 72 63 64 69 58 58 51 51 55 49 46 39 39 40 40 41 42 46 45 50 52 53 53 49 49 50 48 43 44
72 100 100 96 98 91 84 90 96 77 69 68 75 88 84 81 83 74 68 64 65 61 55 51 42 38 38 39 41 43 46 47 56 54 54 54 52 56 62 56 71 50 48
76 100 95 100 100 100 99 94 87 85 80 68 68 70 87 89 89 88 69 74 77 70 66 57 43 39 39 41 44 49 51 54 63 66 83 77 62 71 66 75 87 69 63
74 99 90 84 93 87 77 85 81 74 81 76 72 86 88 86 90 86 93 90 84 84 74 59 44 40 42 43 47 48 55 60 80 70 87 81 77 82 76 65 71 84 86
77 79 76 60 62 66 62 64 70 80 68 68 68 76 83 90 94 98 100 99 88 97 94 74 49 40 44 45 48 50 60 70 76 82 90 76 67 70 66 68 79 74 83
100 100 99 83 77 57 43 58 54 57 74 73 92 96 99 99 100 100 100 100 100 100 100 90 54 44 42 46 46 53 63 70 79 88 90 89 68 58 65 73 77 82 76
94 100 100 100 100 100 97 100 89 75 98 97 91 91 98 97 97 96 95 91 93 100 99 79 60 50 45 44 47 50 66 72 80 78 89 77 62 76 85 88 79 80 76
100 100 99 96 93 99 96 75 79 95 93 74 78 70 77 98 85 82 94 100 96 100 95 82 57 57 49 44 47 56 70 65 74 90 83 63 78 73 81 82 75 80 94
100 100 100 100 100 100 94 88 93 86 100 81 72 67 76 89 98 88 100 100 99 96 95 70 61 60 51 43 46 60 68 66 79 86 64 84 72 77 89 84 88 91 95
100 100 99 100 100 100 100 100 100 100 100 100 100 88 84 74 77 95 100 99 100 95 83 72 66 57 47 47 50 55 71 90 75 75 73 68 76 76 73 76 85 84 83
99 100 100 96 100 100 100 100 100 100 86 79 100 93 80 83 93 95 94 98 82 91 78 70 60 51 46 53 63 76 85 87 78 72 80 80 76 64 73 84 92 85 85
76 73 88 94 100 100 100 96 84 77 74 90 78 84 70 73 80 75 82 93 80 57 66 63 52 49 51 67 86 75 74 87 67 68 69 77 69 81 83 92 94 97 97
70 66 62 62 63 66 74 75 80 72 73 78 88 85 76 82 79 92 100 91 63 51 56 54 52 59 70 83 71 76 86 62 63 67 66 71 84 89 89 97 96 98 100
56 63 62 61 67 68 69 67 70 61 50 54 60 69 72 82 84 99 84 67 51 53 51 53 63 78 82 73 78 68 61 73 72 64 69 89 79 77 100 100 100 94 65
Wind_Speed
46 47 46 48 49 48 43 43 45 46 47 47 47 45 45 46 47 48 50 52 49 48 51 51 52 53 57 60 60 60 58 53 45 42 41 44 45 45 45 42 41 40 37
49 50 49 47 43 40 43 44 45 44 43 43 44 44 46 46 46 50 54 46 48 48 49 50 52 56 59 59 59 59 57 51 47 46 45 46 46 47 46 45 42 41 39
48 46 44 43 42 41 42 40 43 42 42 39 38 39 41 46 51 51 46 46 47 47 49 49 54 57 59 59 59 59 56 52 50 48 48 48 47 46 46 46 45 42 40
42 43 42 41 40 40 38 37 35 36 37 39 41 44 50 50 44 43 43 44 45 47 49 50 56 57 56 58 58 57 54 52 53 51 50 50 48 44 44 46 45 43 41
41 41 41 41 39 39 38 36 35 33 34 38 42 40 40 42 42 41 41 42 45 48 50 53 56 56 56 57 57 54 51 49 48 48 48 47 46 44 41 42 42 42 41
40 40 40 38 40 41 39 37 35 34 34 35 37 39 41 40 41 42 43 45 46 49 53 54 54 56 56 56 55 52 49 49 48 47 45 44 44 44 43 42 42 40 39
40 41 40 40 40 41 41 40 40 39 38 39 40 42 43 44 44 43 45 46 49 52 55 54 53 56 56 56 56 52 49 46 44 45 44 42 45 44 42 42 41 39 37
43 43 43 42 42 43 43 43 44 45 45 44 45 47 48 48 47 46 47 48 51 54 56 54 56 56 56 56 57 52 49 47 44 40 41 40 38 41 44 42 41 39 37
50 47 46 46 46 47 47 48 49 49 48 48 48 50 49 49 48 48 50 51 53 56 56 55 56 57 57 57 57 53 49 47 44 42 41 42 42 42 42 43 43 40 38
51 53 53 52 51 51 52 52 51 50 50 49 49 49 49 49 51 52 52 54 54 57 60 59 58 58 58 59 57 53 50 45 44 44 42 43 43 45 42 45 42 42 40
54 55 55 53 54 53 54 53 51 50 50 48 48 49 50 51 52 53 54 56 58 61 63 62 61 60 61 60 57 56 53 48 46 45 45 47 48 45 44 46 45 44 46
54 55 55 54 53 51 51 52 52 51 51 49 49 51 52 53 53 55 57 58 62 64 64 63 64 64 61 61 58 58 54 50 47 46 48 48 49 49 50 49 47 49 48
52 54 51 49 50 50 52 53 55 54 54 53 53 55 55 54 57 60 59 61 66 64 66 67 67 68 64 60 59 57 56 50 50 49 48 49 52 52 55 53 51 52 50
60 58 52 52 50 54 55 54 54 57 57 57 57 57 57 57 58 61 64 69 67 72 69 68 69 69 66 63 61 57 55 54 50 50 49 50 54 55 55 56 54 56 56
59 59 57 60 59 59 55 56 59 60 62 63 60 61 59 59 61 66 72 73 72 73 74 73 71 70 69 64 62 58 57 56 55 52 53 53 57 57 58 58 58 60 62
67 73 75 73 65 59 66 65 65 61 63 67 66 65 66 68 68 70 74 73 77 80 78 76 72 71 69 66 63 62 58 56 56 56 56 58 59 61 61 63 62 63 64
80 82 82 81 81 79 76 75 72 73 73 75 75 74 74 73 73 76 76 79 85 83 82 81 74 75 69 68 66 64 60 59 58 58 59 64 64 63 63 66 65 66 67
81 80 80 85 86 84 84 83 84 81 77 73 75 75 74 74 79 80 85 90 91 90 88 81 75 77 72 69 68 66 65 62 62 64 66 69 69 68 69 70 71 72 71
86 87 87 89 89 83 85 83 85 83 83 83 82 81 82 84 89 91 92 90 90 91 90 81 77 80 76 75 71 68 65 64 66 67 69 73 73 74 75 74 75 76 77
99 103 99 97 98 97 96 94 92 90 87 85 86 85 88 89 92 94 93 95 94 92 89 85 80 83 80 79 73 70 69 69 72 73 77 78 77 78 79 80 83 84 84
101 101 103 100 104 105 105 103 101 97 95 98 96 93 96 95 97 98 96 97 96 94 90 84 86 86 82 81 77 73 70 72 76 81 79 82 83 84 85 86 88 90 90
116 114 114 112 108 105 113 113 110 108 103 97 98 96 98 105 103 98 99 103 101 96 92 89 90 86 83 80 77 74 75 78 82 83 87 86 89 90 92 93 94 94 94
120 119 120 120 122 122 121 120 120 114 114 110 104 103 106 104 102 103 106 106 102 99 94 93 90 89 85 77 76 77 81 85 85 88 90 94 96 100 99 98 99 100 101
122 123 127 130 130 128 127 126 124 121 119 116 116 114 113 108 106 105 107 108 105 99 95 93 92 88 80 79 80 83 88 89 91 93 96 100 103 106 107 107 109 109 110
131 131 127 132 132 130 129 128 127 126 126 124 121 119 115 113 115 116 115 112 107 96 95 94 90 82 80 83 87 90 92 95 98 100 101 104 107 106 110 113 115 116 115
135 136 138 136 136 138 137 137 135 136 134 132 122 118 115 116 112 112 111 108 98 97 97 90 84 85 87 92 94 96 98 101 105 108 109 110 112 111 109 116 122 123 113
Wind_Direction
269 273 278 283 286 287 287 287 288 287 288 286 289 291 291 293 297 301 305 308 307 309 310 313 315 318 322 324 326 327 329 332 332 333 336 338 339 337 336 331 328 327 323
270 273 277 282 283 283 285 287 288 288 285 284 287 288 290 294 299 302 306 305 307 309 312 314 317 322 324 327 328 330 332 332 332 335 337 340 339 339 337 338 337 338 338
271 274 277 278 279 282 287 288 290 288 288 286 289 293 294 296 297 302 304 304 307 310 312 315 320 324 327 329 331 334 332 332 334 337 340 341 342 341 342 341 343 345 347
269 271 273 274 278 283 285 290 291 291 288 289 292 292 294 297 300 302 303 306 307 308 311 319 322 325 328 331 334 335 333 333 334 336 339 339 341 342 344 347 348 349 352
267 268 271 273 276 280 282 285 289 294 293 290 291 294 296 299 300 302 303 305 306 308 313 321 323 325 329 332 334 336 334 331 331 332 336 338 342 345 345 348 351 352 353
266 267 269 270 274 277 277 280 284 290 294 296 296 296 298 300 301 303 303 304 305 308 314 321 324 325 329 332 335 334 332 330 330 335 337 339 341 345 345 346 350 353 353
264 265 265 268 272 275 277 279 281 287 291 294 296 299 300 300 300 301 301 303 305 309 314 320 323 325 327 330 333 333 330 330 334 336 340 344 347 347 347 347 345 351 352
263 263 265 267 270 273 275 277 281 286 289 292 296 297 298 298 297 298 298 300 304 309 314 319 321 323 326 329 332 332 329 327 332 336 339 346 349 354 353 348 347 345 347
263 263 263 266 268 271 274 279 282 285 288 291 292 294 294 295 296 295 297 301 306 309 313 317 320 320 325 327 329 330 325 325 328 332 335 340 346 355 357 1 356 348 344
267 263 262 265 268 272 275 279 281 284 287 289 292 293 294 295 296 298 300 303 305 309 313 316 317 319 322 324 325 326 324 323 324 329 339 340 342 345 351 354 357 356 349
267 265 264 267 270 272 275 276 279 282 284 288 289 292 294 296 297 299 302 302 305 309 311 314 315 317 318 321 320 322 322 322 323 325 333 337 339 343 346 350 355 359 1
265 263 263 266 270 270 273 277 280 280 283 285 287 291 292 295 297 298 300 302 305 307 309 312 313 314 316 317 317 318 318 319 320 325 332 334 335 339 339 344 348 348 350
267 266 264 263 266 272 276 280 283 283 283 283 286 289 291 294 297 298 300 304 308 309 312 311 311 312 313 313 314 313 313 314 318 321 325 326 332 333 333 337 340 342 342
264 267 261 264 270 277 278 281 284 287 289 288 287 287 290 293 296 298 301 305 307 309 311 310 310 310 309 309 311 309 308 311 312 316 318 320 324 328 327 329 333 335 335
261 260 257 267 270 274 277 280 285 287 289 289 288 288 290 292 295 299 302 304 308 309 309 310 309 308 307 307 308 305 306 307 309 311 314 313 318 321 322 325 325 328 328
260 263 264 265 267 267 277 280 283 284 285 286 287 287 287 292 295 299 300 303 304 305 310 309 307 305 305 305 304 302 301 303 305 308 309 310 312 313 317 320 321 321 321
264 267 269 268 271 276 277 278 282 283 287 288 286 286 289 290 296 297 299 300 303 303 305 306 304 303 303 302 301 299 299 298 301 304 305 308 309 310 314 316 316 317 319
267 265 268 271 273 272 274 275 279 282 283 286 285 286 287 290 293 293 296 299 300 300 302 302 299 299 300 300 298 296 296 295 298 301 301 305 307 309 312 311 314 314 314
261 264 268 272 273 275 276 276 278 279 281 283 283 283 284 286 289 293 296 297 299 301 302 300 298 297 297 300 295 294 294 294 296 299 298 302 306 309 309 309 309 309 310
264 266 266 268 270 272 271 274 276 278 280 281 285 286 287 287 289 292 294 299 300 301 301 300 296 296 296 297 293 292 292 294 295 297 298 302 305 305 306 307 307 308 309
258 261 266 266 269 271 272 272 274 277 281 283 285 284 289 289 291 292 293 298 299 298 299 297 295 295 295 295 292 290 291 293 294 295 301 301 302 303 304 304 305 304 307
258 259 265 264 267 270 272 277 280 280 283 283 284 286 288 290 290 291 292 295 297 298 296 294 295 292 293 291 288 291 291 292 293 297 299 301 301 303 304 304 304 304 306
259 259 261 261 260 264 268 272 277 280 281 283 282 284 287 286 288 289 292 294 296 294 294 294 291 292 292 289 288 290 290 292 296 299 299 301 303 303 304 304 304 304 305
257 258 258 261 263 265 267 271 275 278 279 280 282 283 285 283 286 289 291 293 292 292 291 290 290 290 287 285 287 289 290 294 296 298 301 301 303 304 305 305 305 306 305
258 260 261 264 266 267 270 272 273 276 277 278 279 281 281 281 285 288 290 289 290 287 287 288 288 285 285 285 287 290 292 295 297 299 299 300 301 303 304 305 304 305 305
256 258 261 262 264 266 268 269 271 271 274 276 279 278 280 282 285 285 286 287 286 285 287 285 283 284 285 287 288 291 294 296 297 299 300 301 302 302 303 303 304 305 303